Tillbaka till svenska Fidonet
English   Information   Debug  
FILM   0/18
FNEWS_PUBLISH   4926
FN_SYSOP   42201
FN_SYSOP_OLD1   71952
FTP_FIDO   0/2
FTSC_PUBLIC   0/13972
FUNNY   0/4886
GENEALOGY.EUR   0/71
GET_INFO   105
GOLDED   0/408
HAM   4132/16660
HOLYSMOKE   0/6791
HOT_SITES   0/1
HTMLEDIT   0/71
HUB203   466
HUB_100   264
HUB_400   39
HUMOR   0/29
IC   0/2851
INTERNET   0/424
INTERUSER   0/3
IP_CONNECT   719
JAMNNTPD   0/233
JAMTLAND   0/47
KATTY_KORNER   0/41
LAN   0/16
LINUX-USER   0/19
LINUXHELP   0/1155
LINUX   0/22300
LINUX_BBS   0/957
mail   18.68
mail_fore_ok   249
MENSA   0/341
MODERATOR   0/102
MONTE   0/992
MOSCOW_OKLAHOMA   0/1245
MUFFIN   0/783
MUSIC   0/321
N203_STAT   938
N203_SYSCHAT   313
NET203   321
NET204   69
NET_DEV   0/10
NORD.ADMIN   0/101
NORD.CHAT   0/2572
NORD.FIDONET   189
NORD.HARDWARE   0/28
NORD.KULTUR   0/114
NORD.PROG   0/32
NORD.SOFTWARE   0/88
NORD.TEKNIK   0/58
NORD   0/453
OCCULT_CHAT   0/93
OS2BBS   0/787
OS2DOSBBS   0/580
OS2HW   0/42
OS2INET   0/37
OS2LAN   0/134
OS2PROG   0/36
OS2REXX   0/113
OS2USER-L   207
OS2   0/4830
OSDEBATE   0/18996
PASCAL   0/490
PERL   0/457
PHP   0/45
POINTS   0/405
POLITICS   0/29554
POL_INC   0/14731
PSION   103
R20_ADMIN   1133
R20_AMATORRADIO   0/2
R20_BEST_OF_FIDONET   16
R20_CHAT   0/896
R20_DEPP   0/3
R20_DEV   400
R20_ECHO2   1831
R20_ECHOPRES   0/35
R20_ESTAT   0/719
R20_FIDONETPROG...
...RAM.MYPOINT
  0/2
R20_FIDONETPROGRAM   0/22
R20_FIDONET   0/248
R20_FILEFIND   0/24
R20_FILEFOUND   0/22
R20_HIFI   0/3
R20_INFO2   3723
R20_INTERNET   0/12940
R20_INTRESSE   0/60
R20_INTR_KOM   0/99
R20_KANDIDAT.CHAT   42
R20_KANDIDAT   28
R20_KOM_DEV   112
R20_KONTROLL   0/13360
R20_KORSET   0/18
R20_LOKALTRAFIK   0/24
R20_MODERATOR   0/1852
R20_NC   76
R20_NET200   245
R20_NETWORK.OTH...
...ERNETS
  0/13
R20_OPERATIVSYS...
...TEM.LINUX
  0/44
R20_PROGRAMVAROR   0/1
R20_REC2NEC   534
R20_SFOSM   0/341
R20_SF   0/108
R20_SPRAK.ENGLISH   0/1
R20_SQUISH   107
R20_TEST   2
R20_WORST_OF_FIDONET   20
RAR   0/9
RA_MULTI   106
RA_UTIL   0/162
REGCON.EUR   0/2068
REGCON   0/13
SCIENCE   0/1206
SF   0/239
SHAREWARE_SUPPORT   0/5146
SHAREWRE   0/14
SIMPSONS   0/169
STATS_OLD1   0/2539.065
STATS_OLD2   0/2530
STATS_OLD3   0/2395.095
STATS_OLD4   0/1692.25
SURVIVOR   0/495
SYSOPS_CORNER   0/3
SYSOP   0/84
TAGLINES   0/112
TEAMOS2   0/4530
TECH   0/2617
TEST.444   0/105
TRAPDOOR   0/19
TREK   0/755
TUB   0/290
UFO   0/40
UNIX   0/1316
USA_EURLINK   0/102
USR_MODEMS   0/1
VATICAN   0/2740
VIETNAM_VETS   0/14
VIRUS   0/378
VIRUS_INFO   0/201
VISUAL_BASIC   0/473
WHITEHOUSE   0/5187
WIN2000   0/101
WIN32   0/30
WIN95   0/4291
WIN95_OLD1   0/70272
WINDOWS   0/1517
WWB_SYSOP   0/419
WWB_TECH   0/810
ZCC-PUBLIC   0/1
ZEC   4

 
4DOS   0/134
ABORTION   0/7
ALASKA_CHAT   0/506
ALLFIX_FILE   0/1313
ALLFIX_FILE_OLD1   0/7997
ALT_DOS   0/152
AMATEUR_RADIO   0/1039
AMIGASALE   0/14
AMIGA   0/331
AMIGA_INT   0/1
AMIGA_PROG   0/20
AMIGA_SYSOP   0/26
ANIME   0/15
ARGUS   0/924
ASCII_ART   0/340
ASIAN_LINK   0/651
ASTRONOMY   0/417
AUDIO   0/92
AUTOMOBILE_RACING   0/105
BABYLON5   0/17862
BAG   135
BATPOWER   0/361
BBBS.ENGLISH   0/382
BBSLAW   0/109
BBS_ADS   0/5290
BBS_INTERNET   0/507
BIBLE   0/3563
BINKD   0/1119
BINKLEY   0/215
BLUEWAVE   0/2173
CABLE_MODEMS   0/25
CBM   0/46
CDRECORD   0/66
CDROM   0/20
CLASSIC_COMPUTER   0/378
COMICS   0/15
CONSPRCY   0/899
COOKING   41444
COOKING_OLD1   0/24719
COOKING_OLD2   0/40862
COOKING_OLD3   0/37489
COOKING_OLD4   0/35496
COOKING_OLD5   9370
C_ECHO   0/189
C_PLUSPLUS   0/31
DIRTY_DOZEN   0/201
DOORGAMES   0/2285
DOS_INTERNET   0/196
duplikat   6102
ECHOLIST   0/18295
EC_SUPPORT   0/318
ELECTRONICS   0/359
ELEKTRONIK.GER   1534
ENET.LINGUISTIC   0/13
ENET.POLITICS   0/4
ENET.SOFT   0/11701
ENET.SYSOP   34296
ENET.TALKS   0/32
ENGLISH_TUTOR   0/2000
EVOLUTION   0/1335
FDECHO   0/217
FDN_ANNOUNCE   0/7068
FIDONEWS   25062
FIDONEWS_OLD1   0/49742
FIDONEWS_OLD2   0/35949
FIDONEWS_OLD3   0/30874
FIDONEWS_OLD4   0/37224
FIDO_SYSOP   12922
FIDO_UTIL   0/180
FILEFIND   0/209
FILEGATE   0/212
Möte HAM, 16660 texter
 lista första sista föregående nästa
Text 5195, 977 rader
Skriven 2012-04-12 23:01:07 av Amsat List (1:323/120.0)
Ärende: [keps] orb12103.amsa
============================
[keps] orb12103.amsa

Sender: keps-bounces@amsat.org
Return-Path: <keps-bounces@amsat.org>
X-Rcpt: craig.healy@chowda.com
X-UIDL: 1334285588.330

SB KEPS @ AMSAT  $ORB12103.O
Orbital Elements  12103.OSCAR

HR AMSAT ORBITAL ELEMENTS FOR OSCAR SATELLITES
FROM WA5QGD FORT WORTH,TX April 12, 2012
Send SUBSCRIBE KEPS/UNSUBSCRIBE KEPS to majordomo@amsat.org only
BID: ORB12103.O
TO ALL RADIO AMATEURS BT

Satellite: AO-07
Catalog number: 07530
Epoch time:      12103.54519982
Element set:     354
Inclination:      101.4022 deg
RA of node:       103.2943 deg
Eccentricity:    0.0012120
Arg of perigee:   051.2603 deg
Mean anomaly:     308.9548 deg
Mean motion:   12.53588723 rev/day
Decay rate:       -2.7e-07 rev/day^2
Epoch rev:           71182
Checksum:              260

Satellite: FO-29
Catalog number: 24278
Epoch time:      12102.92572228
Element set:    0828
Inclination:      098.5798 deg
RA of node:       212.2642 deg
Eccentricity:    0.0350215
Arg of perigee:   200.7475 deg
Mean anomaly:     157.9145 deg
Mean motion:   13.52980339 rev/day
Decay rate:       -7.0e-08 rev/day^2
Epoch rev:           77299
Checksum:              330

Satellite: SO-33
Catalog number: 25509
Epoch time:      12102.74991369
Element set:    0207
Inclination:      031.4359 deg
RA of node:       349.6394 deg
Eccentricity:    0.0352766
Arg of perigee:   341.9491 deg
Mean anomaly:     016.8880 deg
Mean motion:   14.28694664 rev/day
Decay rate:       3.13e-06 rev/day^2
Epoch rev:           70314
Checksum:              326

Satellite: RS-22
Catalog number: 27939
Epoch time:      12103.79434673
Element set:     258
Inclination:      097.8175 deg
RA of node:       307.9490 deg
Eccentricity:    0.0014498
Arg of perigee:   111.2008 deg
Mean anomaly:     249.0749 deg
Mean motion:   14.63963907 rev/day
Decay rate:       3.63e-06 rev/day^2
Epoch rev:           45631
Checksum:              331

Satellite: VO-52
Catalog number: 28650
Epoch time:      12102.72491873
Element set:    0075
Inclination:      097.6024 deg
RA of node:       136.9166 deg
Eccentricity:    0.0025231
Arg of perigee:   259.3417 deg
Mean anomaly:     100.4953 deg
Mean motion:   14.82808091 rev/day
Decay rate:       9.42e-06 rev/day^2
Epoch rev:           37512
Checksum:              297

Satellite: HO-68
Catalog number: 36122
Epoch time:      12103.62103419
Element set:     370
Inclination:      100.3672 deg
RA of node:       164.2727 deg
Eccentricity:    0.0007147
Arg of perigee:   258.7615 deg
Mean anomaly:     101.2698 deg
Mean motion:   13.16294446 rev/day
Decay rate:       -4.4e-07 rev/day^2
Epoch rev:           11176
Checksum:              275

/EX
SB KEPS @ AMSAT  $ORB12103.D
Orbital Elements  12103.MICROS

HR AMSAT ORBITAL ELEMENTS FOR THE MICROSATS
FROM WA5QGD FORT WORTH,TX April 12, 2012
Send SUBSCRIBE KEPS/UNSUBSCRIBE KEPS to majordomo@amsat.org only
BID: ORB12103.D
TO ALL RADIO AMATEURS BT

Satellite: UO-11
Catalog number: 14781
Epoch time:      12102.74800745
Element set:    0845
Inclination:      097.9615 deg
RA of node:       162.8318 deg
Eccentricity:    0.0007911
Arg of perigee:   247.6340 deg
Mean anomaly:     112.4034 deg
Mean motion:   14.80377458 rev/day
Decay rate:       5.87e-06 rev/day^2
Epoch rev:           51010
Checksum:              290

Satellite: AO-16
Catalog number: 20439
Epoch time:      12102.85049126
Element set:    0458
Inclination:      098.4246 deg
RA of node:       048.1016 deg
Eccentricity:    0.0011215
Arg of perigee:   000.8247 deg
Mean anomaly:     359.2950 deg
Mean motion:   14.32035976 rev/day
Decay rate:       1.03e-06 rev/day^2
Epoch rev:           16050
Checksum:              266

Satellite: LO-19
Catalog number: 20442
Epoch time:      12102.88358069
Element set:    0367
Inclination:      098.3900 deg
RA of node:       051.3733 deg
Eccentricity:    0.0011890
Arg of perigee:   352.5454 deg
Mean anomaly:     007.5551 deg
Mean motion:   14.32255901 rev/day
Decay rate:       2.06e-06 rev/day^2
Epoch rev:           16069
Checksum:              284

Satellite: AO-27
Catalog number: 22825
Epoch time:      12102.67913363
Element set:    0077
Inclination:      098.5700 deg
RA of node:       046.5486 deg
Eccentricity:    0.0009262
Arg of perigee:   113.1792 deg
Mean anomaly:     247.0367 deg
Mean motion:   14.29444813 rev/day
Decay rate:       -3.1e-07 rev/day^2
Epoch rev:           96697
Checksum:              313

Satellite: IO-26
Catalog number: 22826
Epoch time:      12102.97265436
Element set:    0843
Inclination:      098.5641 deg
RA of node:       047.2242 deg
Eccentricity:    0.0009745
Arg of perigee:   105.6712 deg
Mean anomaly:     254.5545 deg
Mean motion:   14.29717616 rev/day
Decay rate:        8.5e-07 rev/day^2
Epoch rev:           96714
Checksum:              317

Satellite: GO-32
Catalog number: 25397
Epoch time:      12102.82284358
Element set:    0750
Inclination:      098.3585 deg
RA of node:       084.8186 deg
Eccentricity:    0.0002101
Arg of perigee:   103.7047 deg
Mean anomaly:     256.4367 deg
Mean motion:   14.23267367 rev/day
Decay rate:       1.04e-06 rev/day^2
Epoch rev:           71458
Checksum:              302

Satellite: NO-44
Catalog number: 26931
Epoch time:      12102.79742802
Element set:    0016
Inclination:      067.0523 deg
RA of node:       291.4464 deg
Eccentricity:    0.0007101
Arg of perigee:   274.0960 deg
Mean anomaly:     085.9300 deg
Mean motion:   14.29780724 rev/day
Decay rate:       1.42e-06 rev/day^2
Epoch rev:           54975
Checksum:              287

